Other Surface Observations
Issued by NWS

Home | Current Version | Previous Version | Text Only | Print | Product List | Glossary On
Versions: 1 2 3 4 5 6 7 8 9 10 11 12 13 14 15 16 17 18 19 20 21 22 23 24 25 26 27 28 29 30 31 32 33 34 35 36 37 38 39 40 41 42 43 44 45 46 47 48 49 50
963
SXUS52 KTAE 082105
OSOTAE
OSOTAE
North Florida/South Alabama/Southwest Georgia Weather Roundup
National Weather Service Tallahassee Florida
400 PM EST THU DEC 08 2016

Note: "fair" indicates few or no clouds below 12,000 feet with no
significant weather and/or obstructions to visibility.

!FLZ017-115-028-034-025-082200
...North Florida...

CITY           SKY/WX    TMP DP  RH WIND       PRES   REMARKS
TALLAHASSEE    PTSUNNY   63  39  41 N9        30.20R
APALACHICOLA   CLOUDY    64  46  52 N13       30.18R
PERRY          PTSUNNY   64  46  51 N8        30.18R
CROSS CITY     SUNNY     63  48  59 N12       30.16R
JACKSONVILLE   PTSUNNY   66  50  56 NW8       30.13R
$$

!FLZ112-006-005-002-011-082200
...Florida Panhandle...

CITY           SKY/WX    TMP DP  RH WIND       PRES   REMARKS
MARIANNA       MOSUNNY   61  37  41 N8        30.22R
BONIFAY        FAIR      58  38  47 N14G20    30.24R
PANAMA CITY NW FAIR      61  38  42 N14       30.20S
TYNDALL AFB    MOSUNNY   60  40  47 N12       30.20S
TYND DRONE APT FAIR      61  41  48 N13G29    30.20S
DE FUNIAK SPR  FAIR      56  37  49 N12G17    30.25R
EGLIN AFB      PTSUNNY   58  36  44 N17       30.23R
DESTIN         CLOUDY    61  40  45 N16G23    30.22S
HURLBURT       NOT AVBL
CRESTVIEW      PTSUNNY   57  36  45 N10G17    30.27R
PENSACOLA      CLOUDY    55  37  50 N15       30.25S
$$

!ALZ063-066-082200
...South Alabama...

CITY           SKY/WX    TMP DP  RH WIND       PRES   REMARKS
DOTHAN         PTSUNNY   56  36  47 N16       30.27R
OZARK CAIRNS   CLOUDY    56  34  43 N14       30.24S
FT RUCKER HELI CLOUDY    56  34  43 N10       30.25R
RUCKER HELI 3  NOT AVBL
RUCKER HELI 2  FAIR      57  34  41 N13       30.24R
FLORALA APT    CLOUDY    55  35  47 N9G16     30.27R
ANDALUSIA      CLOUDY    58  31  35 N14G20    30.27R
TROY           SUNNY     54  24  31 N16       30.29R
EUFALA         FAIR      59  29  31 NW8       30.25R
MOBILE         CLOUDY    52  32  46 N14G25    30.30R
$$

!GAZ120>161-082200
...Southwest and South Central Georgia...

CITY           SKY/WX    TMP DP  RH WIND       PRES   REMARKS
THOMASVILLE    FAIR      61  43  51 N10       30.21R
BAINBRIDGE     CLOUDY    59  37  44 N10       30.23R
MOODY AFB      MOSUNNY   62  39  42 N12       30.17R
VALDOSTA       PTSUNNY   61  41  47 N5        30.18R
MOULTRIE       MOSUNNY   59  41  51 NW8       30.21R
BLAKELY        MOSUNNY   59  34  38 N3        30.24R
ALBANY         MOSUNNY   60  35  39 N10       30.23R
TIFTON         FAIR      60  39  46 NW10G18   30.19R
FITZGERALD     FAIR      61  40  44 N12G21    30.21R
CORDELE        FAIR      60  31  32 N13       30.22R
AMERICUS       FAIR      55  27  33 N12G20    30.24R
HOMERVILLE     FAIR      63  41  45 N8G16     30.17R
$$

!GMZ750-755-770-775-082200
...Coastal and Buoy Obs...

STATION/POSITION TIME  TEMP    WIND        PRES    VSBY  WAVE
                       AIR SEA DIR/SP/G                  HT/PER
                 (UTC) (F)     (DEG/KT/KT) (MB)    (MI)  (FT/S)
KEATON BEACH     2100   63     350/  8/ 11 1021.5R
CEDAR KEY        2000   63     300/  8/ 13 1020.7R
C TOWER          2100   60      10/ 16/ 18 1022.3R
APALACHICOLA BUO 1950   64 74  340/ 14/ 17 1020.7          3/ 5
PANAMA CITY BUOY 1950   65 75              1022.1          3/ 4
MOBILE BUOY      2040   59 75   20/ 21/ 29 1023.6R
ORANGE BCH AL BU 1950   56 69   10/ 19/ 25 1024.0          3/ 4
$$




USA.gov is the U.S. government's official web portal to all federal, state and local government web resources and services.